CW9148 Weather Reports


Display with metric or nautical units.
time (UTC)temp
F
wind
direction
speed
MPH
gust
MPH
rain 1hr
in
rain 24hr
in
rain mn
in
humidity
%
barometer
mb
20260905035340 57 204 0.0 0.0 0.00 0.03 0.03 52 1015.4
20260905034817 57 204 0.0 0.0 0.00 0.03 0.03 52 1015.4
20260905034323 57 204 0.0 0.0 0.00 0.03 0.03 52 1015.4
20260905033824 57 204 0.0 0.0 0.00 0.03 0.03 52 1015.3
20260905033323 57 204 0.0 0.0 0.00 0.03 0.03 52 1015.3
20260905032821 57 204 0.0 0.0 0.00 0.03 0.03 51 1015.3
20260905032320 57 204 0.0 0.0 0.00 0.03 0.03 51 1015.1
20260905031820 57 204 0.0 0.0 0.00 0.03 0.03 51 1015.1
20260905031321 57 204 0.0 0.0 0.00 0.03 0.03 52 1015.1
20260905030819 57 204 0.0 0.0 0.00 0.03 0.03 52 1015.1
20260905030319 57 204 0.0 0.0 0.00 0.03 0.03 53 1015.1
20260905025815 57 204 0.0 0.0 0.00 0.03 0.03 52 1015.1
20260905025314 57 204 0.0 0.0 0.00 0.03 0.03 53 1015.0
20260905024841 57 204 0.0 0.0 0.00 0.03 0.03 53 1015.0
20260905024338 58 204 0.0 0.0 0.00 0.03 0.03 52 1015.0
20260905023834 58 204 0.0 0.0 0.00 0.03 0.03 54 1015.0
20260905023357 58 204 0.0 0.0 0.00 0.03 0.03 52 1015.0
20260905022836 58 204 0.0 0.0 0.00 0.03 0.03 53 1015.0
20260905022336 58 204 0.0 0.0 0.00 0.03 0.03 52 1014.9
20260905021835 58 204 0.0 0.0 0.00 0.03 0.03 55 1014.9
20260905021334 58 204 0.0 0.0 0.00 0.03 0.03 54 1014.9
20260905020859 58 204 0.0 0.0 0.00 0.03 0.03 55 1015.0
20260905020337 58 204 0.0 0.0 0.00 0.03 0.03 54 1015.0
20260905015815 58 204 0.0 0.0 0.00 0.03 0.03 51 1015.0
20260905015339 58 204 0.0 0.0 0.00 0.03 0.03 50 1015.0
20260905014838 59 204 0.0 0.0 0.00 0.03 0.03 51 1015.0
20260905014336 59 204 0.0 0.0 0.00 0.03 0.03 51 1015.0
20260905013830 59 204 0.0 0.0 0.00 0.03 0.03 50 1014.9
20260905013330 60 204 0.0 0.0 0.00 0.03 0.03 50 1014.9
20260905012856 60 204 0.0 0.0 0.00 0.03 0.03 49 1014.9
20260905012333 60 204 0.0 0.0 0.00 0.03 0.03 49 1014.9
20260905011833 60 204 0.0 0.0 0.00 0.03 0.03 47 1014.9
20260905011314 60 204 0.0 0.0 0.00 0.03 0.03 46 1014.9
20260905010836 61 204 0.0 0.0 0.00 0.03 0.03 45 1014.9
20260905010335 61 204 0.0 0.0 0.00 0.03 0.03 43 1014.9
20260905005836 61 204 0.0 0.0 0.00 0.03 0.03 44 1014.9
20260905005335 62 206 0.0 0.0 0.00 0.03 0.03 43 1014.9
20260905004833 62 206 0.0 0.0 0.00 0.03 0.03 41 1014.9
20260905004331 63 227 0.0 0.0 0.00 0.03 0.03 40 1014.9
20260905003825 63 213 0.0 0.0 0.00 0.03 0.03 40 1014.8
20260905003323 63 234 0.0 0.0 0.00 0.03 0.03 40 1014.8
20260905002822 63 288 0.0 0.0 0.00 0.03 0.03 39 1014.8
20260905002322 63 292 0.0 0.0 0.00 0.03 0.03 40 1014.8
20260905001821 64 258 0.0 0.0 0.00 0.03 0.03 40 1014.8
20260905001319 64 223 0.0 0.0 0.00 0.03 0.03 40 1014.8
20260905000816 65 248 0.0 0.0 0.00 0.03 0.03 40 1014.8
20260905000342 65 218 0.0 0.0 0.00 0.03 0.03 41 1014.8
20260904235820 64 317 0.0 0.0 0.00 0.03 0.03 42 1014.8
20260904235318 65 286 0.0 0.0 0.00 0.03 0.03 42 1014.8
20260904234844 65 275 0.0 0.0 0.00 0.03 0.03 42 1014.8
20260904234342 65 217 0.0 0.0 0.00 0.03 0.03 44 1014.8
20260904233818 65 234 0.0 0.0 0.00 0.03 0.03 45 1014.8
20260904233317 64 214 0.0 0.0 0.00 0.03 0.03 48 1014.8
20260904232843 64 220 0.0 0.0 0.00 0.03 0.03 48 1014.8
20260904232346 64 218 0.0 0.0 0.00 0.03 0.03 50 1014.8
20260904231825 64 198 0.0 0.0 0.00 0.03 0.03 50 1014.8
20260904231351 64 210 0.0 0.0 0.00 0.03 0.03 50 1014.8
20260904230829 64 188 0.0 0.0 0.00 0.03 0.03 48 1014.8
20260904230328 65 238 0.0 0.0 0.00 0.03 0.03 47 1014.8
20260904225850 65 217 0.0 0.0 0.00 0.03 0.03 48 1014.8
20260904225325 64 215 0.0 0.0 0.00 0.03 0.03 49 1014.8
20260904224825 64 225 0.0 0.0 0.00 0.03 0.03 49 1014.8
20260904224322 64 212 0.0 0.0 0.00 0.03 0.03 49 1014.8
20260904223821 64 234 0.0 0.0 0.00 0.03 0.03 50 1014.9
20260904223317 64 182 0.0 0.0 0.00 0.03 0.03 50 1014.9
20260904222822 65 229 0.0 0.0 0.00 0.03 0.03 49 1014.9
20260904222322 65 212 0.0 0.0 0.00 0.03 0.03 50 1014.9
20260904221820 65 160 0.0 0.0 0.00 0.03 0.03 50 1014.9
20260904221317 64 176 0.0 0.0 0.00 0.03 0.03 50 1014.9
20260904220816 64 225 0.0 0.0 0.00 0.03 0.03 50 1014.9
20260904220339 64 184 0.0 0.0 0.00 0.03 0.03 52 1014.9
20260904215836 64 198 0.0 0.0 0.00 0.03 0.03 52 1014.9
20260904215335 64 192 0.0 0.0 0.00 0.03 0.03 53 1014.9
20260904214833 63 216 0.0 0.0 0.00 0.03 0.03 54 1014.9
20260904214330 62 198 0.0 0.0 0.00 0.03 0.03 58 1014.9
20260904213855 62 184 0.0 0.0 0.00 0.03 0.03 59 1014.9
20260904213329 61 180 0.0 0.0 0.00 0.03 0.03 62 1014.9
20260904212826 61 215 0.0 0.0 0.00 0.03 0.03 65 1014.9
20260904212352 61 211 0.0 0.0 0.00 0.03 0.03 68 1014.9
20260904211826 61 179 0.0 0.0 0.00 0.03 0.03 69 1014.9
20260904211320 60 194 0.0 0.0 0.00 0.03 0.03 71 1014.9
20260904210845 60 215 0.0 0.0 0.00 0.03 0.03 75 1014.9
20260904210350 59 214 0.0 0.0 0.00 0.03 0.03 82 1014.9
20260904205825 59 220 0.0 0.0 0.00 0.03 0.03 83 1014.9
20260904205324 59 184 0.0 0.0 0.00 0.03 0.03 83 1014.9
20260904204825 59 181 0.0 0.0 0.00 0.03 0.03 83 1014.9
20260904204348 59 163 0.0 0.0 0.00 0.03 0.03 87 1014.9
20260904203824 59 173 0.0 0.0 0.00 0.03 0.03 87 1014.9
20260904203347 59 186 0.0 0.0 0.00 0.03 0.03 91 1014.9
20260904202820 58 142 0.0 0.0 0.00 0.03 0.03 95 1014.9
20260904202318 58 167 0.0 0.0 0.00 0.03 0.03 95 1014.9
20260904201845 57 205 0.0 0.0 0.00 0.03 0.03 95 1014.9
20260904201333 58 165 0.0 0.0 0.00 0.03 0.03 96 1014.9
20260904200831 58 172 0.0 0.0 0.00 0.03 0.03 96 1014.9
20260904200329 57 182 0.0 0.0 0.00 0.03 0.03 96 1014.9
20260904195835 57 199 0.0 0.0 0.00 0.03 0.03 96 1014.9
20260904195332 57 173 0.0 0.0 0.00 0.03 0.03 96 1015.0
20260904194831 56 169 0.0 0.0 0.00 0.03 0.03 96 1015.0
20260904194329 56 196 0.0 0.0 0.00 0.03 0.03 96 1015.0
20260904193830 56 176 0.0 0.0 0.00 0.03 0.03 96 1015.0
20260904193329 56 172 0.0 0.0 0.00 0.03 0.03 96 1015.0
20260904192828 55 167 0.0 0.0 0.00 0.03 0.03 96 1015.0
20260904192325 55 182 0.0 0.0 0.00 0.03 0.03 96 1015.0
20260904191824 55 190 0.0 0.0 0.00 0.03 0.03 96 1015.0
20260904191351 55 170 0.0 0.0 0.00 0.03 0.03 96 1015.0
20260904190854 55 196 0.0 0.0 0.00 0.03 0.03 96 1015.0
20260904190333 55 165 0.0 0.0 0.00 0.03 0.03 96 1015.0
20260904185831 55 178 0.0 0.0 0.00 0.03 0.03 96 1015.0
20260904185330 55 175 0.0 0.0 0.00 0.03 0.03 96 1015.0
20260904184825 55 150 0.0 0.0 0.00 0.03 0.03 96 1015.0
20260904184321 54 157 0.0 0.0 0.00 0.03 0.03 96 1015.0
20260904183826 54 158 0.0 0.0 0.00 0.03 0.03 96 1015.1
20260904183325 54 128 0.0 0.0 0.00 0.03 0.03 96 1015.1
20260904182831 54 144 0.0 0.0 0.00 0.03 0.03 96 1015.1
20260904182327 53 149 0.0 0.0 0.00 0.03 0.03 96 1015.0
20260904181828 53 179 0.0 0.0 0.00 0.03 0.03 96 1015.0
20260904181327 53 179 0.0 0.0 0.00 0.03 0.03 96 1015.0
20260904180826 53 179 0.0 0.0 0.00 0.03 0.03 96 1015.0
20260904180325 53 179 0.0 0.0 0.01 0.03 0.03 96 1015.0
20260904175825 53 179 0.0 0.0 0.01 0.03 0.03 96 1015.0
20260904175323 53 179 0.0 0.0 0.01 0.03 0.03 96 1015.0
20260904174817 53 179 0.0 0.0 0.01 0.03 0.03 96 1015.0
20260904174342 52 179 0.0 0.0 0.01 0.03 0.03 96 1015.0
20260904173819 52 179 0.0 0.0 0.01 0.03 0.03 96 1014.8
20260904173347 52 179 0.0 0.0 0.02 0.03 0.03 96 1014.8
20260904172832 53 179 0.0 0.0 0.02 0.03 0.03 96 1014.8
20260904172331 53 179 0.0 0.0 0.02 0.03 0.03 96 1014.7
20260904171831 53 179 0.0 0.0 0.02 0.03 0.03 96 1014.7
20260904171330 52 179 0.0 0.0 0.02 0.03 0.03 96 1014.7
20260904170823 52 179 0.0 0.0 0.02 0.03 0.03 96 1014.5
20260904170323 52 178 0.0 0.0 0.01 0.02 0.02 96 1014.5
20260904165826 52 181 0.0 0.0 0.01 0.02 0.02 96 1014.5
20260904165350 52 172 0.0 0.0 0.01 0.02 0.02 96 1014.3
20260904164830 53 204 0.0 0.0 0.01 0.02 0.02 96 1014.3
20260904164330 53 207 0.0 0.0 0.01 0.02 0.02 96 1014.3
20260904163827 53 194 0.0 0.0 0.01 0.02 0.02 96 1014.1
20260904163326 53 194 0.0 0.0 0.00 0.01 0.01 96 1014.1
20260904162826 53 192 0.0 0.0 0.00 0.01 0.01 95 1014.1
20260904162351 52 200 0.0 0.0 0.00 0.01 0.01 95 1014.0
20260904161828 53 196 0.0 0.0 0.00 0.01 0.01 95 1014.0
20260904161329 53 173 0.0 0.0 0.00 0.01 0.01 96 1014.0
20260904160823 53 171 0.0 0.0 0.00 0.01 0.01 96 1013.9
20260904160324 53 185 0.0 0.0 0.00 0.01 0.01 95 1013.9
20260904155824 53 190 0.0 0.0 0.00 0.01 0.01 95 1013.9
20260904155349 53 193 0.0 0.0 0.00 0.01 0.01 95 1013.9
20260904154827 53 177 0.0 0.0 0.00 0.01 0.01 96 1013.9
20260904154327 53 150 0.0 0.0 0.00 0.01 0.01 95 1013.9
20260904153825 52 165 0.0 0.0 0.00 0.01 0.01 95 1013.8
20260904153324 52 165 0.0 0.0 0.00 0.01 0.01 95 1013.8
20260904152851 52 165 0.0 0.0 0.00 0.01 0.01 95 1013.8
20260904152329 52 165 0.0 0.0 0.00 0.01 0.01 95 1013.8
20260904151826 52 165 0.0 0.0 0.00 0.01 0.01 95 1013.8
20260904151323 52 165 0.0 0.0 0.00 0.01 0.01 95 1013.8
20260904150819 52 165 0.0 0.0 0.00 0.01 0.01 95 1013.8
20260904150320 52 165 0.0 0.0 0.00 0.01 0.01 95 1013.8
20260904145816 52 165 0.0 0.0 0.01 0.01 0.01 95 1013.8
20260904145400 52 165 0.0 0.0 0.01 0.01 0.01 95 1013.7
20260904144836 52 165 0.0 0.0 0.01 0.01 0.01 95 1013.7
20260904144341 52 165 0.0 0.0 0.01 0.01 0.01 94 1013.7
20260904143834 52 165 0.0 0.0 0.01 0.01 0.01 94 1013.5
20260904143352 53 165 0.0 0.0 0.01 0.01 0.01 94 1013.5
20260904142829 53 165 0.0 0.0 0.01 0.01 0.01 94 1013.5
20260904142354 53 165 0.0 0.0 0.01 0.01 0.01 94 1013.3
20260904141832 53 164 0.0 0.0 0.01 0.01 0.01 94 1013.3
20260904141356 53 164 0.0 0.0 0.01 0.01 0.01 94 1013.3
20260904140835 53 164 0.0 0.0 0.01 0.01 0.01 94 1013.1
20260904140332 53 164 0.0 0.0 0.00 0.00 0.01 94 1013.1
20260904135858 53 164 0.0 0.0 0.00 0.00 0.00 94 1013.1
20260904135336 53 164 0.0 0.0 0.00 0.00 0.00 94 1013.1
20260904134834 53 164 0.0 0.0 0.00 0.00 0.00 94 1013.1
20260904134332 53 164 0.0 0.0 0.00 0.00 0.00 93 1013.1
20260904133830 53 164 0.0 0.0 0.00 0.00 0.00 93 1013.1
20260904133332 54 164 0.0 0.0 0.00 0.00 0.00 93 1013.1
20260904132829 54 164 0.0 0.0 0.00 0.00 0.00 92 1013.1
20260904132331 54 164 0.0 0.0 0.00 0.00 0.00 92 1012.9
20260904131829 54 164 0.0 0.0 0.00 0.00 0.00 92 1012.9
20260904131330 54 164 0.0 0.0 0.00 0.00 0.00 92 1012.9
20260904130829 54 164 0.0 0.0 0.00 0.00 0.00 91 1012.7
20260904130327 54 164 0.0 0.0 0.00 0.00 0.00 91 1012.7
20260904125827 54 164 0.0 0.0 0.00 0.00 0.00 91 1012.7
20260904125326 54 164 0.0 0.0 0.00 0.00 0.00 91 1012.7
20260904124826 54 161 0.0 0.0 0.00 0.00 0.00 90 1012.7
20260904124321 54 161 0.0 0.0 0.00 0.00 0.00 90 1012.7
20260904123819 54 161 0.0 0.0 0.00 0.00 0.00 90 1012.7
20260904123317 54 161 0.0 0.0 0.00 0.00 0.00 90 1012.7
20260904122814 54 161 0.0 0.0 0.00 0.00 0.00 90 1012.7
20260904122340 54 161 0.0 0.0 0.00 0.00 0.00 90 1012.7
20260904121838 54 161 0.0 0.0 0.00 0.00 0.00 90 1012.7
20260904121338 55 159 0.0 0.0 0.00 0.00 0.00 90 1012.7
20260904120838 55 159 0.0 0.0 0.00 0.00 0.00 89 1012.6
20260904120338 55 159 0.0 0.0 0.00 0.00 0.00 89 1012.6
20260904115835 55 159 0.0 0.0 0.00 0.00 0.00 89 1012.6
20260904115334 55 159 0.0 0.0 0.00 0.00 0.00 89 1012.5
20260904114833 55 159 0.0 0.0 0.00 0.00 0.00 90 1012.5
20260904114334 55 159 0.0 0.0 0.00 0.00 0.00 90 1012.5
20260904113834 55 159 0.0 0.0 0.00 0.00 0.00 89 1012.5
20260904113334 55 159 0.0 0.0 0.00 0.00 0.00 89 1012.5
20260904112833 55 159 0.0 0.0 0.00 0.00 0.00 89 1012.5
20260904112327 55 159 0.0 0.0 0.00 0.00 0.00 89 1012.5
20260904111826 55 159 0.0 0.0 0.00 0.00 0.00 89 1012.5
20260904111325 55 159 0.0 0.0 0.00 0.00 0.00 88 1012.5
20260904110826 55 159 0.0 0.0 0.00 0.00 0.00 88 1012.5
20260904110326 55 159 0.0 0.0 0.00 0.00 0.00 88 1012.5
20260904105824 55 159 0.0 0.0 0.00 0.00 0.00 88 1012.5
20260904105323 55 159 0.0 0.0 0.00 0.00 0.00 88 1012.4
20260904104820 55 159 0.0 0.0 0.00 0.00 0.00 89 1012.4
20260904104342 55 159 0.0 0.0 0.00 0.00 0.00 89 1012.4
20260904103821 55 159 0.0 0.0 0.00 0.00 0.00 89 1012.5
20260904103321 55 159 0.0 0.0 0.00 0.00 0.00 89 1012.5
20260904102825 55 159 0.0 0.0 0.00 0.00 0.00 90 1012.5
20260904102324 55 159 0.0 0.0 0.00 0.00 0.00 90 1012.4
20260904101828 55 159 0.0 0.0 0.00 0.00 0.00 90 1012.4
20260904101328 55 159 0.0 0.0 0.00 0.00 0.00 91 1012.4
20260904100827 55 159 0.0 0.0 0.00 0.00 0.00 91 1012.5
20260904100325 55 159 0.0 0.0 0.00 0.00 0.00 91 1012.5
20260904095823 55 159 0.0 0.0 0.00 0.00 0.00 92 1012.5
20260904095346 55 208 0.0 0.0 0.00 0.00 0.00 92 1012.5
20260904094825 55 208 0.0 0.0 0.00 0.00 0.00 93 1012.5
20260904094325 55 209 0.0 0.0 0.00 0.00 0.00 93 1012.5
20260904093820 55 221 0.0 0.0 0.00 0.00 0.00 93 1012.5
20260904093328 55 225 0.0 0.0 0.00 0.00 0.00 93 1012.5
20260904092827 55 257 0.0 0.0 0.00 0.00 0.00 93 1012.5
20260904092325 55 306 0.0 0.0 0.00 0.00 0.00 93 1012.5
20260904091824 55 306 0.0 0.0 0.00 0.00 0.00 93 1012.5
20260904091322 55 306 0.0 0.0 0.00 0.00 0.00 93 1012.5
20260904090820 55 306 0.0 0.0 0.00 0.00 0.00 93 1012.6
20260904090319 55 306 0.0 0.0 0.00 0.00 0.00 93 1012.6
20260904085841 55 306 0.0 0.0 0.00 0.00 0.00 93 1012.6
20260904085339 55 306 0.0 0.0 0.00 0.00 0.00 93 1012.7
20260904084838 55 306 0.0 0.0 0.00 0.00 0.00 93 1012.7
20260904084316 55 306 0.0 0.0 0.00 0.00 0.00 93 1012.7
20260904083817 55 306 0.0 0.0 0.00 0.00 0.00 92 1012.7
20260904083315 55 306 0.0 0.0 0.00 0.00 0.00 92 1012.7
20260904082839 55 306 0.0 0.0 0.00 0.00 0.00 91 1012.7
20260904082335 55 306 0.0 0.0 0.00 0.00 0.00 91 1012.7
20260904081817 55 306 0.0 0.0 0.00 0.00 0.00 91 1012.7
20260904081339 55 306 0.0 0.0 0.00 0.00 0.00 91 1012.7
20260904080837 55 306 0.0 0.0 0.00 0.00 0.00 91 1012.8
20260904080315 55 306 0.0 0.0 0.00 0.00 0.00 90 1012.8
20260904075842 55 306 0.0 0.0 0.00 0.00 0.00 90 1012.8
20260904075337 55 306 0.0 0.0 0.00 0.00 0.00 90 1012.9
20260904074815 55 306 0.0 0.0 0.00 0.00 0.00 90 1012.9
20260904074340 55 306 0.0 0.0 0.00 0.00 0.00 90 1012.9
20260904073839 55 306 0.0 0.0 0.00 0.00 0.00 90 1012.9
20260904073316 55 306 0.0 0.0 0.00 0.00 0.00 91 1012.9
20260904072817 55 306 0.0 0.0 0.00 0.00 0.00 91 1012.9
20260904072340 55 306 0.0 0.0 0.00 0.00 0.00 91 1012.9
20260904071835 55 306 0.0 0.0 0.00 0.00 0.00 91 1012.9
20260904071315 55 306 0.0 0.0 0.00 0.00 0.00 91 1012.9
20260904070815 55 306 0.0 0.0 0.00 0.00 0.00 91 1012.9
20260904070339 55 306 0.0 0.0 0.00 0.00 0.00 90 1012.9
20260904065831 55 306 0.0 0.0 0.00 0.00 0.00 90 1012.9
20260904065329 55 306 0.0 0.0 0.00 0.00 0.00 90 1012.7
20260904064826 55 306 0.0 0.0 0.00 0.00 0.00 89 1012.7
20260904064325 55 306 0.0 0.0 0.00 0.00 0.00 89 1012.7
20260904063848 55 306 0.0 0.0 0.00 0.00 0.00 89 1012.7
20260904063328 55 306 0.0 0.0 0.00 0.00 0.00 89 1012.7
20260904062827 55 306 0.0 0.0 0.00 0.00 0.00 89 1012.7
20260904062317 55 306 0.0 0.0 0.00 0.00 0.00 88 1012.5
20260904061816 55 306 0.0 0.0 0.00 0.00 0.00 88 1012.5
20260904061341 55 306 0.0 0.0 0.00 0.00 0.00 88 1012.5
20260904060840 55 306 0.0 0.0 0.00 0.00 0.00 88 1012.7
20260904060339 55 306 0.0 0.0 0.00 0.00 0.00 88 1012.7
20260904055815 55 306 0.0 0.0 0.00 0.00 0.00 88 1012.7
20260904055316 55 306 0.0 0.0 0.00 0.00 0.00 88 1012.9
20260904054842 55 306 0.0 0.0 0.00 0.00 0.00 88 1012.9
20260904054319 55 306 0.0 0.0 0.00 0.00 0.00 88 1012.9
20260904053818 55 306 0.0 0.0 0.00 0.00 0.00 88 1013.1
20260904053317 55 306 0.0 0.0 0.00 0.00 0.00 88 1013.1
20260904052857 55 306 0.0 0.0 0.00 0.00 0.00 88 1013.1
20260904052334 55 306 0.0 0.0 0.00 0.00 0.00 88 1013.2
20260904051839 55 306 0.0 0.0 0.00 0.00 0.00 88 1013.2
20260904051336 55 306 0.0 0.0 0.00 0.00 0.00 88 1013.2
20260904050814 55 306 0.0 0.0 0.00 0.00 0.00 88 1013.4
20260904050341 55 306 0.0 0.0 0.00 0.00 0.00 88 1013.4
20260904045815 55 306 0.0 0.0 0.00 0.00 0.00 88 1013.4
20260904045314 55 306 0.0 0.0 0.00 0.00 0.00 88 1013.5
20260904044814 55 306 0.0 0.0 0.00 0.00 0.00 88 1013.5
20260904044337 56 306 0.0 0.0 0.00 0.00 0.00 88 1013.5
20260904043837 56 306 0.0 0.0 0.00 0.00 0.00 88 1013.4
20260904043332 56 306 0.0 0.0 0.00 0.00 0.00 88 1013.4
20260904042831 56 306 0.0 0.0 0.00 0.00 0.00 88 1013.4
20260904042334 56 306 0.0 0.0 0.00 0.00 0.00 88 1013.3
20260904041833 56 306 0.0 0.0 0.00 0.00 0.00 88 1013.3
20260904041338 56 306 0.0 0.0 0.00 0.00 0.00 88 1013.3
20260904040836 56 306 0.0 0.0 0.00 0.00 0.00 87 1013.2
20260904040315 56 306 0.0 0.0 0.00 0.00 0.00 87 1013.2
20260904035832 56 317 0.0 0.0 0.00 0.00 0.00 86 1013.2